Location: Saluda
(35.2377°N, 82.3468°W)
Time: 17:27:14
(UTC+00:00)

Transit 2A - Pass Details

Date: 09 October 2022
Orbit: 598 x 959 km, 66.7° (Epoch: 06 December)

Event Time Altitude Azimuth Distance (km) Brightness Sun altitude
Rises 12:37:33 0° 325° (NW) 3,045 8.6 12.5°
Reaches altitude 10° 12:39:51 10° 318° (NW) 2,176 7.9 13.0°
Maximum altitude 12:44:33 44° 248° (WSW) 1,043 6.6 13.9°
Drops below altitude 10° 12:49:43 10° 177° (S) 2,393 8.9 14.9°
Sets 12:52:22 0° 171° (S) 3,382 9.7 15.4°
